User: anonymous   Login
Location: Hartman Creek State Park
(44.3257°N, 89.2134°W)
Time: 06:00:36
(UTC-05:00)
Language:

Cosmos 2263 Rocket - Orbit

View from above orbital plane
View from above orbital plane
View from above satellite
View from above satellite

Ground track
Ground track

The orbit data is extracted from the following two-line orbital elements,

1 22803U 93059B   18174.45867522 -.00000187  00000-0 -69302-4 0  9993
2 22803  70.9885 187.0748 0017406 188.0203 172.0645 14.16793764280877
Epoch (UTC): 23 June 2018 11:00:29
Eccentricity: 0.0017406
inclination: 70.9885°
perigee height: 823 km
apogee height: 849 km
right ascension of ascending node: 187.0748°
argument of perigee: 188.0203°
revolutions per day: 14.16793764
mean anomaly at epoch: 172.0645°
orbit number at epoch: 28087

The dashed part of the orbit path shows where the satellite is in the earth's shadow,  

DLR